星链-30914 (STARLINK-30914 )

导读

STARLINK-30914是美国SpaceX星链计划中的一颗卫星,于2023年11月20日发射升空。作为星链星座的组成部分,它主要用于提供全球卫星互联网服务,能为偏远地区等网络覆盖不足区域带来高速网络连接,进一步扩充了星链星座的卫星规模,推进了SpaceX全球组网的进程。

基本信息
目录编号:
58377
目录名称:
STARLINK-30914
国际标识:
2023-178D
轨道中心:
EARTH
卫星名称:
星链-30914
卫星全名:
星链-30914 (STARLINK-30914 )
卫星状态:
在轨 (已飞行941 天)
发射日期:
2023-11-20 UTC
国别 :
美国 (US)
星等 :
--
轨道信息
数据来源 国际轨道数据
星历时间: 2026-06-17T19:31:34+0800
21小时前
查看轨道信息
半长轴: 6840.873km
偏心率: 0.0001649
轨道倾角: 53.162°
近地点辐角 90.686°
升交点赤经 255.858°
平近点角 269.433°
近地点: 461.607km
远地点: 463.865km
周期: 93.848分钟
每日圈数: 15.343891
详细信息
固有亮度:
5
最大亮度:
0.3
卫星平台:
Starlink v2.0 mini
覆盖范围:
全球
运营商:
太空探索技术公司
运营商所在国:
美国
制造商(研发单位):
太空探索技术公司
制造商所在国:
美国
使用方式:
暂无
卫星简介
星链(Starlink)计划是由太空探索技术公司(SpaceX)提出的一个巨型低轨卫星互联网星座项目,计划在2019年至2024年间在太空搭建由约1.2万颗卫星组成的“星链”网络,其中1584颗将部署在地球上空550千米处的近地轨道,并从2020年开始工作。该卫星仍在工作。
2D轨道图
3D轨道图
轨道高度分析图
轨道倾角分析图
轨道综合分析图
查看轨道综合分析图